This is the latest recevied weather packets stored in our database for station/object IT9KWW-13. If no packets are shown the sender has not sent any weather packets the latest 10 day(s).
| Time | Temp. | Humidity | Pressure | Rain* | Wind** | Luminosity | Snow |
|---|---|---|---|---|---|---|---|
| 1777874647 | 19.44° C | 62% | 1018 hPa | 0 mm | - | - | - |
| 1777874528 | 18.89° C | 63% | 1018 hPa | 0 mm | - | - | - |
| 1777874407 | 18.33° C | 69% | 1016.9 hPa | 0 mm | - | - | - |
| 1777874287 | 17.22° C | 71% | 1016.9 hPa | 0 mm | - | - | - |
| 1777874168 | 16.67° C | 72% | 1016.9 hPa | 0 mm | - | - | - |
| 1777874047 | 16.67° C | 71% | 1016.9 hPa | 0 mm | - | - | - |
| 1777873927 | 16.11° C | 68% | 1016.9 hPa | 0 mm | - | - | - |
| 1777873808 | 16.11° C | 68% | 1016.9 hPa | 0 mm | - | - | - |
| 1777873687 | 15.56° C | 69% | 1016.9 hPa | 0 mm | - | - | - |
| 1777873567 | 15.56° C | 71% | 1016.9 hPa | 0 mm | - | - | - |
| 1777873447 | 15° C | 71% | 1016.9 hPa | 0 mm | - | - | - |
| 1777873327 | 15° C | 71% | 1016.9 hPa | 0 mm | - | - | - |
| 1777873195 | 14.44° C | 72% | 1016.9 hPa | 0 mm | - | - | - |
| 1777873076 | 14.44° C | 73% | 1016.9 hPa | 0 mm | - | - | - |
| 1777872955 | 14.44° C | 74% | 1016.9 hPa | 0 mm | - | - | - |
| 1777872835 | 13.89° C | 74% | 1016.9 hPa | 0 mm | - | - | - |
| 1777872716 | 13.89° C | 75% | 1016.9 hPa | 0 mm | - | - | - |
| 1777872595 | 13.33° C | 76% | 1016.9 hPa | 0 mm | - | - | - |
| 1777872475 | 13.33° C | 76% | 1016.9 hPa | 0 mm | - | - | - |
| 1777872355 | 13.33° C | 77% | 1016.9 hPa | 0 mm | - | - | - |
| 1777872235 | 13.33° C | 77% | 1016.9 hPa | 0 mm | - | - | - |
| 1777872115 | 12.78° C | 78% | 1016.9 hPa | 0 mm | - | - | - |
| 1777871984 | 12.78° C | 78% | 1016.9 hPa | 0 mm | - | - | - |
| 1777871851 | 12.78° C | 78% | 1016.9 hPa | 0 mm | - | - | - |
| 1777871719 | 12.78° C | 79% | 1016.9 hPa | 0 mm | - | - | - |
* Rain latest hour (hover to see other rain measurements)
** Current wind speed in m/s (hover to see current wind gust speed)